Location: ??????????
(48.4699°N, 37.9573°E)
Time: 19:50:26
(UTC+00:00)

H-2A R/B - Pass Details

Date: 20 January 2021
Orbit: 529 x 651 km, 98.3° (Epoch: 02 March)

Event Time Altitude Azimuth Distance (km) Brightness Sun altitude
Rises 14:54:01 0° 172° (S) 2,723 6.1 -7.7°
Reaches altitude 10° 14:56:07 10° 176° (S) 1,851 5.2 -8.0°
Maximum altitude 15:00:06 64° 258° (WSW) 646 3.0 -8.6°
Drops below altitude 10° 15:04:16 10° 340° (NNW) 1,940 5.1 -9.3°
Sets 15:06:31 0° 344° (NNW) 2,868 6.0 -9.6°
